Regional Weather Roundup
Issued by NWS Charleston, SC

Current Version | Previous Version | Text Only | Print | Product List | Glossary Off
Versions: 1 2 3 4 5 6 7 8 9 10 11 12 13 14 15 16 17 18 19 20 21 22 23 24 25 26 27 28 29 30 31 32 33 34 35 36 37 38 39 40 41 42 43 44 45 46 47 48 49 50

000
ASUS42 KCHS 162227
RWRCHS

REGIONAL WEATHER ROUNDUP
NATIONAL WEATHER SERVICE CHARLESTON SC
600 PM EDT MON OCT 16 2017

NOTE: "FAIR" INDICATES FEW OR NO CLOUDS BELOW 12,000 FEET WITH NO
SIGNIFICANT WEATHER AND/OR OBSTRUCTIONS TO VISIBILITY.

NOT ALL STATIONS ARE QUALITY CONTROLLED. USE DATA WITH CAUTION...
ESPECIALLY DEWPOINT OBSERVATIONS.

SCZ027-030-031-034>040-042>050-162300-
...SOUTHEAST SOUTH CAROLINA...

CITY           SKY/WX    TMP DP  RH WIND       PRES   REMARKS
N CHARLESTON   RAIN      67  65  93 N17G25    29.99R FOG
WATERFRONT PRK NOT AVBL
JOHNS ISLAND   LGT RAIN  70  68  94 N16G24    29.98R
PINOPOLIS        N/A     68  64  88 N23       29.92R
MONCKS CORNER  CLOUDY    64  59  82 N13G26    30.03R
SUMMERVILLE    CLOUDY    64  61  88 N14       30.04R
BEAUFORT MCAS  RAIN      73  72  96 N21G29    29.98R FOG
BEAUFORT ARPT  CLOUDY    75  70  83 N23G30    29.97R
HILTON HEAD IS MOCLDY    77  72  83 CALM      29.95S
WALTERBORO     CLOUDY    64  61  88 N9G17     30.03R
ALLENDALE      NOT AVBL

...SOUTHERN MIDLANDS AND PEE DEE...

CITY           SKY/WX    TMP DP  RH WIND       PRES   REMARKS
GEORGETOWN     CLOUDY    63  63 100 N17       30.03R
KINGSTREE      CLOUDY    63  55  77 N8        30.08R
ORANGEBURG     CLOUDY    66  54  65 NE10G20   30.05R
BARNWELL         N/A     70  59  68 NE12G17   30.05R
AIKEN          FAIR      66  57  72 NE12G23   30.09R
MANNING        DRIZZLE   63  57  82 MISG      30.07R
COLUMBIA       MOCLDY    69  55  60 NE12      30.06R
SUMTER         MOCLDY    65  56  73 NE14      30.05R
FLORENCE       CLOUDY    63  56  78 N13       30.08R
MYRTLE BEACH   CLOUDY    63  60  90 N20       30.04R
N MYRTLE BEACH CLOUDY    63  61  93 N17G25    30.02R

$$

GAZ063-065-086>088-099>101-113>116-118-119-134>141-150-162300-
...SOUTHEAST GEORGIA...

CITY           SKY/WX    TMP DP  RH WIND       PRES   REMARKS
SAVANNAH ARPT  HVY RAIN  74  71  91 SE13      29.95S FOG
HUNTER AAF     PTCLDY    77  73  87 E3        29.93R
FORT STEWART   PTCLDY    79  71  74 NW3       29.93R
STATESBORO     MOCLDY    79  65  62 N8        29.97R
SYLVANIA       CLOUDY    78  70  76 NE13      29.99R
CLAXTON        FAIR      82  70  66 NW5       29.96R

...CSRA...CENTRAL AND FAR SOUTHEAST GEORGIA...

CITY           SKY/WX    TMP DP  RH WIND       PRES   REMARKS
THOMSON        PTSUNNY   74  62  65 E9        30.09R
AUGUSTA-BUSH   PTCLDY    74  61  63 NE17      30.03R
AUGUSTA-DANIEL CLOUDY    73  61  65 NE14      30.04R
SWAINSBORO     FAIR      79  64  61 N5        30.00R
VIDALIA        PTSUNNY   81  68  65 N7        29.98R
EASTMAN        FAIR      75  46  35 N7        30.03R
HAZLEHURST       N/A     80  61  53 N10G16    29.96R
ALMA           MOSUNNY   80  69  69 N8        29.95S
WAYCROSS       CLOUDY    77  74  91 CALM      29.95S
JESUP          NOT AVBL
BAXLEY         FAIR      73  73 100 CALM      29.96R
BRUNSWICK      MOSUNNY   79  68  69 N6        29.95R THUNDER
SAINT SIMONS   TSTM      78  73  84 N18       29.95R

$$

SCZ027-028-034-036>038-045-046-048>050-GAZ119-141-162300-
...LAKE AND SUPPLEMENTAL COASTAL OBSERVATIONS...

STATION/POSITION TIME  TEMP    WIND        PRES    WAVE   SWELL
                       AIR SEA DIR/SP/G            HT/PER HT/PER/DIR
                 (UTC) (F)     (DEG/KT/KT) (MB)    (FT/S) (FT/S/D)
WINYAH BAY       2145   65      10/ 10     1016.0R
LAKE MURRAY      2220   67      30/  3/  8 1017.9
ACE BASIN NERRS  2145   76     340/  1     1014.0S
FORT PULASKI     2200   77 80   60/  1/  2 1014.6
SAPELO ISLAND    2200   79      30/  9     1014.0

$$

ANZ835-935-AMZ111-154-330-350-352-354-370-450-454-472-162300-
...C-MAN AND BUOY OBSERVATIONS...

STATION/POSITION TIME  TEMP    WIND        PRES    WAVE   SWELL
                       AIR SEA DIR/SP/G            HT/PER HT/PER/DIR
                 (UTC) (F)     (DEG/KT/KT) (MB)    (FT/S) (FT/S/D)
BUOY 41004       2210   76 81   10/ 17/ 21 1013.7
BUOY 41008       2150   78 81   90/  8/ 21 1013.5R   2/ 9   2/ 90/ 9
FOLLY BEACH CMAN 2200   76      10/ 16/ 20 1015.1R
CAPERS NEARSHORE 2208   69 79   20/ 21/ 29 1014.1R
FRIPP NEARSHORE  2208   77     250/  2/  2   N/A


STATION/POSITION TIME  TEMP    WIND        PRES    WAVE   SWELL
                       AIR SEA DIR/SP/G            HT/PER HT/PER/DIR
                 (UTC) (F)     (DEG/KT/KT) (MB)    (FT/S) (FT/S/D)
5E ST. MARYS GA  2200      82                N/A     2/ 9
FRYING PAN BUOY  2210   71 79  360/ 25/ 31 1014.6
BUOY 41025       2150   70 81   10/ 23/ 29 1014.6R   5/ 5   2/120/ 9
CAPE LOOKOUT NC  2200   64     350/ 21/ 25 1015.9R
BUOY 41002       2150   79 80  280/  4/  6 1013.6S   3/ 8   3/ 70/ 8
BUOY 41010       NOT AVBL
ST AUGUSTINE FL  2200   80 83   90/  6/  7 1013.8S


$$



USA.gov is the U.S. government's official web portal to all federal, state and local government web resources and services.